[[{"header":{"parameterUnit":"m.s-1","parameterCategory":1,"la1":30.2991,"la2":30.254,"lo1":-89.0895,"lo2":-89.0444,"dy":0.0017,"dx":0.0017,"nx":28,"ny":28,"refTime":"2025-07-18T21:00:00:Z","depth":0,"parameterNumber":2,"parameterNumberName":"U-component_of_WINDS"},"data":[0,0,0,0,0,0,0,0,0,0,0,0,0,0,0,0,0,0,0,0,0,0,0,0,0,0,0,0,0,0,0,0,0,0,0,0,0,0,0,0,0,0,0,0,0,0,0,0,0,0,0,0,0,0,0,0,0,0,1.7675,1.7676,0,1.7718,1.7718,1.7719,1.7741,1.7741,1.7741,1.7741,1.7784,1.7786,1.7787,0,0,0,0,0,0,0,0,0,0,0,0,0,1.7615,1.7616,1.7675,1.7676,1.7676,1.7717,1.7718,1.7719,1.7741,1.7741,1.7741,1.7741,1.7784,1.7785,1.7787,0,0,0,0,0,0,0,0,0,0,0,0,0,1.7647,1.7616,1.7675,1.7692,1.7694,1.7717,1.7718,1.7719,1.7741,1.7741,1.7741,1.7741,1.7784,1.7785,1.7787,1.7797,0,0,1.7792,1.7793,0,0,0,0,0,0,0,0,1.7645,1.7649,1.7689,1.7691,1.7693,1.7724,1.7713,1.7745,1.774,1.7723,1.7741,1.7741,1.7764,1.7768,1.7775,1.7799,1.7801,1.7792,1.7793,1.7794,1.7795,0,0,0,0,0,0,0,1.7643,1.7648,1.7692,1.769,1.7692,1.7698,1.7703,1.7719,1.7743,1.7724,1.7726,1.7731,1.7765,1.7774,1.7777,1.7801,1.7792,1.7794,1.7795,1.7796,1.7836,1.7836,0,0,0,0,0,0,1.7638,1.7646,1.7691,1.7693,1.7669,1.7699,1.7704,1.7714,1.7743,1.7747,1.7731,1.7732,1.7771,1.7775,1.7778,1.7792,1.7794,1.7796,1.7797,1.7836,1.7836,1.7836,0,0,0,0,0,0,1.7637,1.7642,1.7689,1.767,1.7676,1.77,1.7711,1.7715,1.7723,1.7747,1.7752,1.7735,1.7771,1.7776,1.7792,1.7794,1.7796,1.7798,1.7835,1.7836,1.7836,1.7819,0,0,0,0,0,0,1.7635,1.7641,1.7645,1.767,1.7677,1.7702,1.7711,1.7716,1.7726,1.7728,1.7752,1.7757,1.7771,1.7789,1.7794,1.7796,1.7799,1.7835,1.7835,1.7836,1.782,1.7819,1.7818,0,0,0,0,0,1.7632,1.7638,1.7645,1.765,1.7682,1.7702,1.7706,1.7723,1.7726,1.773,1.7746,1.7756,1.7793,1.7791,1.7796,1.7799,1.7835,1.7835,1.7836,1.782,1.7819,1.7818,0,0,0,0,0,0,1.7613,1.7642,1.7649,1.7664,1.768,1.7705,1.7711,1.7721,1.7737,1.7738,1.7758,1.7763,1.7778,1.779,1.7787,1.781,1.7815,1.7816,1.7802,1.7801,1.78,1.7797,1.7801,0,0,0,0,0,1.761,1.7623,1.7648,1.7658,1.7666,1.7687,1.7696,1.7708,1.7726,1.7733,1.775,1.7767,1.7782,1.7792,1.7808,1.7822,1.7828,1.7826,1.7825,1.7824,1.7825,1.7834,1.7834,1.7836,1.7836,1.7836,0,0,1.7605,1.7622,1.7629,1.7655,1.7669,1.7682,1.7693,1.7706,1.7717,1.7735,1.7751,1.7764,1.7785,1.78,1.7808,1.7811,1.7826,1.7825,1.7824,1.7825,1.7834,1.7834,1.7834,1.7836,1.7836,1.7836,0,0,1.7602,1.7616,1.7627,1.764,1.7662,1.7676,1.7678,1.7702,1.7712,1.7728,1.7743,1.7755,1.7782,1.7796,1.7807,1.781,1.782,1.7814,1.7809,1.7818,1.7818,1.7818,1.7819,1.7819,1.7815,1.7815,1.7815,0,1.7592,1.7613,1.7631,1.7644,1.7655,1.7672,1.7683,1.7695,1.7721,1.7728,1.7731,1.7765,1.778,1.7799,1.78,1.7808,1.7812,1.7811,1.7816,1.7816,1.7816,1.7818,1.7819,1.7814,1.7814,1.7814,1.7814,0,1.7601,1.7615,1.7621,1.7645,1.7656,1.7668,1.7688,1.7698,1.7708,1.7722,1.774,1.7758,1.7778,1.7784,1.7794,1.7804,1.7806,1.7812,1.7818,1.7815,1.7817,1.7818,1.7813,1.7813,1.7814,1.7814,0,0,1.7586,1.762,1.7622,1.7633,1.7658,1.767,1.7683,1.7702,1.7711,1.7728,1.7739,1.7761,1.7768,1.778,1.7792,1.7799,1.7801,1.7805,1.7806,1.7804,1.7814,1.7809,1.781,1.7808,1.7808,1.7808,1.7813,0,1.7587,1.7611,1.7627,1.7645,1.7658,1.7675,1.7686,1.7703,1.7716,1.773,1.7745,1.7761,1.7768,1.7775,1.7783,1.7799,1.7804,1.7799,1.782,1.782,1.7814,1.7811,1.7806,1.7809,1.7814,1.7814,1.7814,0,1.7591,1.7608,1.7626,1.765,1.7657,1.7667,1.7686,1.7699,1.7719,1.7728,1.7742,1.7754,1.7769,1.7773,1.7794,1.7791,1.78,1.781,1.781,1.7813,1.7817,1.7814,1.781,1.7811,1.7815,1.7815,1.7815,0,1.7579,1.7606,1.7621,1.763,1.7658,1.7665,1.7677,1.7697,1.7708,1.7725,1.7732,1.7751,1.7761,1.7776,1.7794,1.7795,1.7813,1.7818,1.7822,1.7821,1.7825,1.7824,1.7823,1.783,1.783,1.783,1.783,0,1.7578,1.7589,1.7616,1.7625,1.7638,1.7657,1.767,1.7683,1.7701,1.7713,1.7729,1.774,1.7763,1.7777,1.7791,1.7807,1.7811,1.7819,1.7823,1.7818,1.7817,1.7825,1.7825,1.783,1.783,1.783,1.783,0,1.7567,1.7585,1.7603,1.7628,1.7635,1.7644,1.7666,1.7675,1.769,1.7705,1.771,1.7733,1.7751,1.777,1.7794,1.7803,1.7818,1.7823,1.7812,1.7814,1.7816,1.7815,1.7819,1.7821,1.7827,1.7827,1.7827,0,1.7566,1.7574,1.7601,1.761,1.7622,1.7637,1.7648,1.7668,1.7679,1.7702,1.7709,1.7728,1.7744,1.7772,1.7791,1.781,1.7815,1.7815,1.7818,1.7813,1.7816,1.7815,1.7816,1.7814,1.7814,1.7814,1.7814,0,1.7561,1.757,1.7585,1.7604,1.7617,1.7633,1.7649,1.7656,1.7679,1.7691,1.7709,1.7722,1.7746,1.7765,1.7786,1.7799,1.7811,1.7813,1.7815,1.781,1.7803,1.7807,1.7809,1.7813,1.7813,1.7813,1.7813,1.7813,1.7555,1.7564,1.7584,1.7601,1.7615,1.763,1.7641,1.7657,1.7672,1.7694,1.7705,1.7723,1.7743,1.7773,1.7785,1.78,1.7804,1.7806,1.7807,1.7807,1.7806,1.78,1.7804,1.7804,1.7804,1.7804,1.7804,0,1.7551,1.7565,1.7581,1.7603,1.7617,1.7626,1.7645,1.7656,1.7672,1.7689,1.7705,1.7726,1.7745,1.7765,1.7785,1.7793,1.7799,1.7797,1.7797,1.78,1.7802,1.7798,1.7793,1.7793,1.7793,1.7793,1.7793,1.7793,1.7551,1.7567,1.7578,1.7601,1.7615,1.7633,1.7643,1.7657,1.7672,1.7695,1.771,1.7723,1.7742,1.7764,1.7781,1.7787,1.7793,1.7791,1.7798,1.7799,1.78,1.7801,1.7798,1.7792,1.7792,1.7795,1.7795,1.7795]},{"header":{"parameterUnit":"m.s-1","parameterCategory":1,"la1":30.2991,"la2":30.254,"lo1":-89.0895,"lo2":-89.0444,"dy":0.0017,"dx":0.0017,"nx":28,"ny":28,"refTime":"2025-07-18T21:00:00:Z","depth":0,"parameterNumber":3,"parameterNumberName":"V-component_of_WINDS"},"data":[0,0,0,0,0,0,0,0,0,0,0,0,0,0,0,0,0,0,0,0,0,0,0,0,0,0,0,0,0,0,0,0,0,0,0,0,0,0,0,0,0,0,0,0,0,0,0,0,0,0,0,0,0,0,0,0,0,0,-0.6613,-0.6614,0,-0.6666,-0.6667,-0.6667,-0.6664,-0.6664,-0.6663,-0.6662,-0.6716,-0.6718,-0.672,0,0,0,0,0,0,0,0,0,0,0,0,0,-0.6512,-0.6514,-0.6613,-0.6614,-0.6615,-0.6666,-0.6667,-0.6667,-0.6665,-0.6664,-0.6663,-0.6662,-0.6715,-0.6718,-0.672,0,0,0,0,0,0,0,0,0,0,0,0,0,-0.6559,-0.6514,-0.6613,-0.6619,-0.6621,-0.6666,-0.6667,-0.6667,-0.6665,-0.6664,-0.6662,-0.6661,-0.6714,-0.6717,-0.672,-0.6763,0,0,-0.673,-0.6732,0,0,0,0,0,0,0,0,-0.6557,-0.6563,-0.6618,-0.6619,-0.662,-0.6657,-0.665,-0.6699,-0.6665,-0.6648,-0.6662,-0.6661,-0.6697,-0.6702,-0.6714,-0.6765,-0.6768,-0.6731,-0.6732,-0.6734,-0.6735,0,0,0,0,0,0,0,-0.6553,-0.6561,-0.6634,-0.6619,-0.662,-0.662,-0.6626,-0.666,-0.6678,-0.6649,-0.6649,-0.6656,-0.6698,-0.6711,-0.6715,-0.6768,-0.673,-0.6733,-0.6735,-0.6737,-0.6859,-0.686,0,0,0,0,0,0,-0.6549,-0.6558,-0.6632,-0.6636,-0.6585,-0.6623,-0.6629,-0.6647,-0.6678,-0.6682,-0.6656,-0.6655,-0.6706,-0.6712,-0.6717,-0.677,-0.6734,-0.6737,-0.6739,-0.6858,-0.6859,-0.6861,0,0,0,0,0,0,-0.6547,-0.6555,-0.663,-0.6597,-0.6607,-0.6626,-0.6646,-0.6648,-0.6662,-0.6683,-0.6687,-0.6667,-0.6705,-0.6713,-0.6752,-0.6772,-0.6738,-0.6741,-0.6856,-0.6858,-0.686,-0.6875,0,0,0,0,0,0,-0.6544,-0.6555,-0.657,-0.6597,-0.6608,-0.6664,-0.6647,-0.665,-0.6667,-0.6666,-0.6694,-0.6697,-0.6705,-0.6747,-0.6755,-0.6776,-0.6744,-0.6855,-0.6857,-0.686,-0.6873,-0.6878,-0.6882,0,0,0,0,0,-0.654,-0.6572,-0.6571,-0.658,-0.6628,-0.6665,-0.6671,-0.668,-0.6669,-0.6685,-0.67,-0.6696,-0.6769,-0.6751,-0.676,-0.6782,-0.6853,-0.6856,-0.6859,-0.6871,-0.6877,-0.6881,0,0,0,0,0,0,-0.6546,-0.6576,-0.6575,-0.6617,-0.6638,-0.6664,-0.6685,-0.6685,-0.671,-0.6708,-0.6718,-0.6724,-0.6764,-0.6777,-0.6757,-0.6826,-0.681,-0.6814,-0.6816,-0.6821,-0.6825,-0.6821,-0.6746,0,0,0,0,0,-0.6553,-0.658,-0.6604,-0.6638,-0.665,-0.6666,-0.6682,-0.6687,-0.671,-0.6719,-0.6736,-0.6758,-0.6786,-0.6804,-0.6831,-0.6875,-0.6882,-0.6895,-0.6899,-0.6902,-0.6906,-0.6932,-0.6939,-0.6871,-0.6871,-0.6871,0,0,-0.6566,-0.6585,-0.6602,-0.664,-0.6658,-0.6686,-0.6673,-0.6703,-0.6725,-0.6723,-0.6762,-0.6775,-0.6801,-0.6844,-0.6863,-0.6855,-0.6927,-0.6906,-0.6909,-0.6911,-0.6936,-0.6943,-0.6948,-0.6873,-0.6873,-0.6872,0,0,-0.6605,-0.6621,-0.6653,-0.6671,-0.6698,-0.6709,-0.6717,-0.6743,-0.6752,-0.6791,-0.6791,-0.6817,-0.6864,-0.6883,-0.6899,-0.6947,-0.6946,-0.6956,-0.6978,-0.7003,-0.7008,-0.7013,-0.7031,-0.7037,-0.696,-0.696,-0.696,0,-0.6617,-0.666,-0.6669,-0.67,-0.6718,-0.6718,-0.6751,-0.6768,-0.6802,-0.6815,-0.6806,-0.6867,-0.6884,-0.6932,-0.6944,-0.6956,-0.6966,-0.6953,-0.7007,-0.7012,-0.7016,-0.7034,-0.704,-0.6961,-0.6961,-0.6961,-0.6961,0,-0.6675,-0.6705,-0.6727,-0.6761,-0.6781,-0.6813,-0.6827,-0.6847,-0.685,-0.6863,-0.6903,-0.6924,-0.6956,-0.6968,-0.6971,-0.7016,-0.7011,-0.7004,-0.6988,-0.7024,-0.704,-0.7047,-0.6963,-0.6962,-0.6962,-0.6962,0,0,-0.6718,-0.6758,-0.6766,-0.6782,-0.6813,-0.6836,-0.6869,-0.69,-0.6917,-0.6941,-0.6969,-0.7011,-0.7005,-0.7023,-0.7029,-0.7051,-0.709,-0.7042,-0.7043,-0.7051,-0.7142,-0.7147,-0.7155,-0.7089,-0.709,-0.7091,-0.714,0,-0.6761,-0.6818,-0.6828,-0.6878,-0.6906,-0.6909,-0.6937,-0.6959,-0.6972,-0.6998,-0.7012,-0.7042,-0.7032,-0.7043,-0.7065,-0.708,-0.7108,-0.7077,-0.7116,-0.7117,-0.7109,-0.7163,-0.7169,-0.7214,-0.7147,-0.7148,-0.7149,0,-0.6817,-0.6844,-0.6897,-0.6926,-0.6938,-0.6963,-0.6994,-0.7019,-0.7045,-0.7053,-0.7074,-0.7078,-0.7112,-0.7095,-0.7143,-0.7122,-0.7138,-0.7149,-0.7151,-0.7155,-0.7135,-0.717,-0.7228,-0.7235,-0.7159,-0.7158,-0.7157,0,-0.6845,-0.6893,-0.6932,-0.6946,-0.698,-0.6998,-0.7013,-0.7038,-0.7057,-0.7084,-0.7097,-0.7127,-0.7144,-0.7168,-0.718,-0.7166,-0.7228,-0.7212,-0.7236,-0.7236,-0.7249,-0.7248,-0.7312,-0.7259,-0.7259,-0.7259,-0.7259,0,-0.6891,-0.6924,-0.6945,-0.6969,-0.7006,-0.7018,-0.7054,-0.7069,-0.7092,-0.7119,-0.7123,-0.7148,-0.7163,-0.7191,-0.7201,-0.724,-0.7247,-0.7255,-0.7257,-0.7255,-0.7254,-0.7266,-0.7263,-0.7261,-0.726,-0.726,-0.7259,0,-0.6927,-0.6943,-0.6985,-0.7015,-0.7023,-0.7049,-0.7075,-0.7098,-0.7112,-0.7146,-0.7155,-0.7176,-0.7209,-0.7224,-0.7265,-0.7272,-0.7317,-0.7316,-0.7308,-0.7309,-0.7333,-0.7331,-0.7407,-0.7418,-0.7357,-0.7358,-0.7358,0,-0.6956,-0.6981,-0.7014,-0.7033,-0.7049,-0.7079,-0.7099,-0.7112,-0.7132,-0.7165,-0.7185,-0.7219,-0.7246,-0.7299,-0.7318,-0.735,-0.7351,-0.7376,-0.7356,-0.7353,-0.7352,-0.7351,-0.7354,-0.7379,-0.738,-0.738,-0.738,0,-0.7006,-0.7013,-0.7041,-0.7073,-0.7097,-0.7122,-0.7147,-0.7163,-0.718,-0.7203,-0.7237,-0.7259,-0.7302,-0.7335,-0.7368,-0.7384,-0.7386,-0.7387,-0.7394,-0.7392,-0.7386,-0.7391,-0.7318,-0.7385,-0.7384,-0.7384,-0.7384,-0.7384,-0.704,-0.7063,-0.709,-0.7122,-0.7143,-0.7167,-0.7191,-0.7208,-0.7237,-0.7273,-0.7279,-0.7316,-0.7343,-0.7388,-0.7405,-0.7435,-0.7429,-0.7439,-0.7442,-0.7445,-0.7447,-0.7382,-0.7441,-0.7441,-0.7441,-0.7441,-0.744,0,-0.709,-0.7108,-0.7138,-0.7173,-0.7199,-0.7199,-0.7227,-0.7248,-0.7281,-0.7306,-0.7334,-0.7374,-0.7407,-0.743,-0.7463,-0.7483,-0.7484,-0.7491,-0.749,-0.7494,-0.745,-0.744,-0.749,-0.749,-0.749,-0.749,-0.749,-0.749,-0.712,-0.716,-0.717,-0.7221,-0.7239,-0.7275,-0.7292,-0.7314,-0.7334,-0.738,-0.7407,-0.7422,-0.7446,-0.7482,-0.7513,-0.7519,-0.7531,-0.7539,-0.7544,-0.7502,-0.7497,-0.7492,-0.7483,-0.7541,-0.7541,-0.7586,-0.7587,-0.7587]}]]